Year,Month,Day,Hour,Minute,Value (Times are PST for temperature in C)
2008,04,10,00,00,5.30
2008,04,10,00,01,5.30
2008,04,10,00,02,5.30
2008,04,10,00,03,5.30
2008,04,10,00,04,5.30
2008,04,10,00,05,5.30
2008,04,10,00,06,5.30
2008,04,10,00,07,5.30
2008,04,10,00,08,5.30
2008,04,10,00,09,5.30
2008,04,10,00,10,5.30
2008,04,10,00,11,5.30
2008,04,10,00,12,5.30
2008,04,10,00,13,5.30
2008,04,10,00,14,5.20
2008,04,10,00,15,5.20
2008,04,10,00,16,5.20
2008,04,10,00,17,5.20
2008,04,10,00,18,5.20
2008,04,10,00,19,5.20
2008,04,10,00,20,5.10
2008,04,10,00,21,5.10
2008,04,10,00,22,5.10
2008,04,10,00,23,5.10
2008,04,10,00,24,5.10
2008,04,10,00,25,5.10
2008,04,10,00,26,5.10
2008,04,10,00,27,5.10
2008,04,10,00,28,5.10
2008,04,10,00,29,5.10
2008,04,10,00,30,5.10
2008,04,10,00,31,5.10
2008,04,10,00,32,5.00
2008,04,10,00,33,4.90
2008,04,10,00,34,4.90
2008,04,10,00,35,4.90
2008,04,10,00,36,4.90
2008,04,10,00,37,4.90
2008,04,10,00,38,4.90
2008,04,10,00,39,4.90
2008,04,10,00,40,4.90
2008,04,10,00,41,4.90
2008,04,10,00,42,4.90
2008,04,10,00,43,4.90
2008,04,10,00,44,4.90
2008,04,10,00,45,4.90
2008,04,10,00,46,4.90
2008,04,10,00,47,4.90
2008,04,10,00,48,4.90
2008,04,10,00,49,4.90
2008,04,10,00,50,4.90
2008,04,10,00,51,4.90
2008,04,10,00,52,4.80
2008,04,10,00,53,4.80
2008,04,10,00,54,4.80
2008,04,10,00,55,4.80
2008,04,10,00,56,4.80
2008,04,10,00,57,4.80
2008,04,10,00,58,4.80
2008,04,10,00,59,4.70
2008,04,10,01,00,4.70
2008,04,10,01,01,4.70
2008,04,10,01,02,4.70
2008,04,10,01,03,4.70
2008,04,10,01,04,4.70
2008,04,10,01,05,4.70
2008,04,10,01,06,4.70
2008,04,10,01,07,4.70
2008,04,10,01,08,4.70
2008,04,10,01,09,4.70
2008,04,10,01,10,4.70
2008,04,10,01,11,4.70
2008,04,10,01,12,4.70
2008,04,10,01,13,4.70
2008,04,10,01,14,4.70
2008,04,10,01,15,4.60
2008,04,10,01,16,4.60
2008,04,10,01,17,4.60
2008,04,10,01,18,4.60
2008,04,10,01,19,4.60
2008,04,10,01,20,4.60
2008,04,10,01,21,4.60
2008,04,10,01,22,4.60
2008,04,10,01,23,4.60
2008,04,10,01,24,4.60
2008,04,10,01,25,4.60
2008,04,10,01,26,4.60
2008,04,10,01,27,4.60
2008,04,10,01,28,4.50
2008,04,10,01,29,4.50
2008,04,10,01,30,4.50
2008,04,10,01,31,4.50
2008,04,10,01,32,4.50
2008,04,10,01,33,4.50
2008,04,10,01,34,4.50
2008,04,10,01,35,4.50
2008,04,10,01,36,4.50
2008,04,10,01,37,4.40
2008,04,10,01,38,4.40
2008,04,10,01,39,4.40
2008,04,10,01,40,4.40
2008,04,10,01,41,4.40
2008,04,10,01,42,4.40
2008,04,10,01,43,4.40
2008,04,10,01,44,4.30
2008,04,10,01,45,4.30
2008,04,10,01,46,4.20
2008,04,10,01,47,4.20
2008,04,10,01,48,4.20
2008,04,10,01,49,4.20
2008,04,10,01,50,4.20
2008,04,10,01,51,4.20
2008,04,10,01,52,4.20
2008,04,10,01,53,4.20
2008,04,10,01,54,4.20
2008,04,10,01,55,4.20
2008,04,10,01,56,4.20
2008,04,10,01,57,4.20
2008,04,10,01,58,4.20
2008,04,10,01,59,4.20
2008,04,10,02,00,4.20
2008,04,10,02,01,4.20
2008,04,10,02,02,4.20
2008,04,10,02,03,4.20
2008,04,10,02,04,4.20
2008,04,10,02,05,4.20
2008,04,10,02,06,4.20
2008,04,10,02,07,4.10
2008,04,10,02,08,4.10
2008,04,10,02,09,4.10
2008,04,10,02,10,4.10
2008,04,10,02,11,4.10
2008,04,10,02,12,4.10
2008,04,10,02,13,4.10
2008,04,10,02,14,4.10
2008,04,10,02,15,4.10
2008,04,10,02,16,4.10
2008,04,10,02,17,4.10
2008,04,10,02,18,4.10
2008,04,10,02,19,4.10
2008,04,10,02,20,4.10
2008,04,10,02,21,4.10
2008,04,10,02,22,4.10
2008,04,10,02,23,4.20
2008,04,10,02,24,4.20
2008,04,10,02,25,4.20
2008,04,10,02,26,4.20
2008,04,10,02,27,4.20
2008,04,10,02,28,4.20
2008,04,10,02,29,4.20
2008,04,10,02,30,4.20
2008,04,10,02,31,4.20
2008,04,10,02,32,4.20
2008,04,10,02,33,4.20
2008,04,10,02,34,4.20
2008,04,10,02,35,4.20
2008,04,10,02,36,4.30
2008,04,10,02,37,4.30
2008,04,10,02,38,4.30
2008,04,10,02,39,4.30
2008,04,10,02,40,4.40
2008,04,10,02,41,4.40
2008,04,10,02,42,4.40
2008,04,10,02,43,4.40
2008,04,10,02,44,4.40
2008,04,10,02,45,4.40
2008,04,10,02,46,4.40
2008,04,10,02,47,4.50
2008,04,10,02,48,4.50
2008,04,10,02,49,4.50
2008,04,10,02,50,4.50
2008,04,10,02,51,4.50
2008,04,10,02,52,4.60
2008,04,10,02,53,4.60
2008,04,10,02,54,4.60
2008,04,10,02,55,4.60
2008,04,10,02,56,4.60
2008,04,10,02,57,4.60
2008,04,10,02,58,4.60
2008,04,10,02,59,4.60
2008,04,10,03,00,4.60
2008,04,10,03,01,4.60
2008,04,10,03,02,4.60
2008,04,10,03,03,4.60
2008,04,10,03,04,4.60
2008,04,10,03,05,4.60
2008,04,10,03,06,4.70
2008,04,10,03,07,4.70
2008,04,10,03,08,4.70
2008,04,10,03,09,4.80
2008,04,10,03,10,4.80
2008,04,10,03,11,4.80
2008,04,10,03,12,4.80
2008,04,10,03,13,4.90
2008,04,10,03,14,4.90
2008,04,10,03,15,4.90
2008,04,10,03,16,4.90
2008,04,10,03,17,4.90
2008,04,10,03,18,4.90
2008,04,10,03,19,4.90
2008,04,10,03,20,4.90
2008,04,10,03,21,5.10
2008,04,10,03,22,5.10
2008,04,10,03,23,5.10
2008,04,10,03,24,5.10
2008,04,10,03,25,5.10
2008,04,10,03,26,5.10
2008,04,10,03,27,5.10
2008,04,10,03,28,5.10
2008,04,10,03,29,5.20
2008,04,10,03,30,5.20
2008,04,10,03,31,5.20
2008,04,10,03,32,5.20
2008,04,10,03,33,5.30
2008,04,10,03,34,5.30
2008,04,10,03,35,5.30
2008,04,10,03,36,5.30
2008,04,10,03,37,5.30
2008,04,10,03,38,5.30
2008,04,10,03,39,5.30
2008,04,10,03,40,5.30
2008,04,10,03,41,5.30
2008,04,10,03,42,5.30
2008,04,10,03,43,5.30
2008,04,10,03,44,5.30
2008,04,10,03,45,5.30
2008,04,10,03,46,5.30
2008,04,10,03,47,5.30
2008,04,10,03,48,5.30
2008,04,10,03,49,5.30
2008,04,10,03,50,5.30
2008,04,10,03,51,5.30
2008,04,10,03,52,5.30
2008,04,10,03,53,5.30
2008,04,10,03,54,5.30
2008,04,10,03,55,5.40
2008,04,10,03,56,5.40
2008,04,10,03,57,5.40
2008,04,10,03,58,5.40
2008,04,10,03,59,5.40
2008,04,10,04,00,5.40
2008,04,10,04,01,5.50
2008,04,10,04,02,5.50
2008,04,10,04,03,5.50
2008,04,10,04,04,5.50
2008,04,10,04,05,5.50
2008,04,10,04,06,5.50
2008,04,10,04,07,5.50
2008,04,10,04,08,5.60
2008,04,10,04,09,5.60
2008,04,10,04,10,5.60
2008,04,10,04,11,5.60
2008,04,10,04,12,5.60
2008,04,10,04,13,5.70
2008,04,10,04,14,5.70
2008,04,10,04,15,5.70
2008,04,10,04,16,5.70
2008,04,10,04,17,5.70
2008,04,10,04,18,5.70
2008,04,10,04,19,5.70
2008,04,10,04,20,5.70
2008,04,10,04,21,5.70
2008,04,10,04,22,5.70
2008,04,10,04,23,5.70
2008,04,10,04,24,5.70
2008,04,10,04,25,5.70
2008,04,10,04,26,5.70
2008,04,10,04,27,5.70
2008,04,10,04,28,5.70
2008,04,10,04,29,5.70
2008,04,10,04,30,5.70
2008,04,10,04,31,5.70
2008,04,10,04,32,5.70
2008,04,10,04,33,5.70
2008,04,10,04,34,5.70
2008,04,10,04,35,5.70
2008,04,10,04,36,5.70
2008,04,10,04,37,5.70
2008,04,10,04,38,5.70
2008,04,10,04,39,5.70
2008,04,10,04,40,5.70
2008,04,10,04,41,5.70
2008,04,10,04,42,5.70
2008,04,10,04,43,5.70
2008,04,10,04,44,5.70
2008,04,10,04,45,5.70
2008,04,10,04,46,5.70
2008,04,10,04,47,5.70
2008,04,10,04,48,5.70
2008,04,10,04,49,5.70
2008,04,10,04,50,5.70
2008,04,10,04,51,5.70
2008,04,10,04,52,5.70
2008,04,10,04,53,5.70
2008,04,10,04,54,5.70
2008,04,10,04,55,5.70
2008,04,10,04,56,5.70
2008,04,10,04,57,5.70
2008,04,10,04,58,5.70
2008,04,10,04,59,5.70
2008,04,10,05,00,5.70
2008,04,10,05,01,5.70
2008,04,10,05,02,5.70
2008,04,10,05,03,5.70
2008,04,10,05,04,5.70
2008,04,10,05,05,5.70
2008,04,10,05,06,5.70
2008,04,10,05,07,5.70
2008,04,10,05,08,5.70
2008,04,10,05,09,5.70
2008,04,10,05,10,5.70
2008,04,10,05,11,5.70
2008,04,10,05,12,5.70
2008,04,10,05,13,5.70
2008,04,10,05,14,5.70
2008,04,10,05,15,5.70
2008,04,10,05,16,5.70
2008,04,10,05,17,5.70
2008,04,10,05,18,5.70
2008,04,10,05,19,5.70
2008,04,10,05,20,5.70
2008,04,10,05,21,5.70
2008,04,10,05,22,5.70
2008,04,10,05,23,5.70
2008,04,10,05,24,5.70
2008,04,10,05,25,5.70
2008,04,10,05,26,5.70
2008,04,10,05,27,5.70
2008,04,10,05,28,5.70
2008,04,10,05,29,5.70
2008,04,10,05,30,5.70
2008,04,10,05,31,5.70
2008,04,10,05,32,5.70
2008,04,10,05,33,5.70
2008,04,10,05,34,5.70
2008,04,10,05,35,5.70
2008,04,10,05,36,5.70
2008,04,10,05,37,5.70
2008,04,10,05,38,5.70
2008,04,10,05,39,5.70
2008,04,10,05,40,5.70
2008,04,10,05,41,5.70
2008,04,10,05,42,5.70
2008,04,10,05,43,5.70
2008,04,10,05,44,5.70
2008,04,10,05,45,5.70
2008,04,10,05,46,5.70
2008,04,10,05,47,5.70
2008,04,10,05,48,5.70
2008,04,10,05,49,5.70
2008,04,10,05,50,5.70
2008,04,10,05,51,5.70
2008,04,10,05,52,5.70
2008,04,10,05,53,5.70
2008,04,10,05,54,5.70
2008,04,10,05,55,5.70
2008,04,10,05,56,5.70
2008,04,10,05,57,5.70
2008,04,10,05,58,5.70
2008,04,10,05,59,5.70
2008,04,10,06,00,5.70
2008,04,10,06,01,5.70
2008,04,10,06,02,5.70
2008,04,10,06,03,5.70
2008,04,10,06,04,5.70
2008,04,10,06,05,5.70
2008,04,10,06,06,5.70
2008,04,10,06,07,5.70
2008,04,10,06,08,5.70
2008,04,10,06,09,5.70
2008,04,10,06,10,5.70
2008,04,10,06,11,5.70
2008,04,10,06,12,5.70
2008,04,10,06,13,5.80
2008,04,10,06,14,5.80
2008,04,10,06,15,5.80
2008,04,10,06,16,5.80
2008,04,10,06,17,5.80
2008,04,10,06,18,5.80
2008,04,10,06,19,5.80
2008,04,10,06,20,5.80
2008,04,10,06,21,5.80
2008,04,10,06,22,5.80
2008,04,10,06,23,5.80
2008,04,10,06,24,5.80
2008,04,10,06,25,5.80
2008,04,10,06,26,5.80
2008,04,10,06,27,5.80
2008,04,10,06,28,5.80
2008,04,10,06,29,5.80
2008,04,10,06,30,5.80
2008,04,10,06,31,5.70
2008,04,10,06,32,5.70
2008,04,10,06,33,5.70
2008,04,10,06,34,5.70
2008,04,10,06,35,5.70
2008,04,10,06,36,5.70
2008,04,10,06,37,5.70
2008,04,10,06,38,5.70
2008,04,10,06,39,5.70
2008,04,10,06,40,5.70
2008,04,10,06,41,5.70
2008,04,10,06,42,5.70
2008,04,10,06,43,5.70
2008,04,10,06,44,5.70
2008,04,10,06,45,5.70
2008,04,10,06,46,5.70
2008,04,10,06,47,5.70
2008,04,10,06,48,5.70
2008,04,10,06,49,5.70
2008,04,10,06,50,5.70
2008,04,10,06,51,5.70
2008,04,10,06,52,5.70
2008,04,10,06,53,5.70
2008,04,10,06,54,5.70
2008,04,10,06,55,5.70
2008,04,10,06,56,5.70
2008,04,10,06,57,5.70
2008,04,10,06,58,5.70
2008,04,10,06,59,5.70
2008,04,10,07,00,5.70
2008,04,10,07,01,5.70
2008,04,10,07,02,5.70
2008,04,10,07,03,5.70
2008,04,10,07,04,5.70
2008,04,10,07,05,5.60
2008,04,10,07,06,5.60
2008,04,10,07,07,5.60
2008,04,10,07,08,5.60
2008,04,10,07,09,5.60
2008,04,10,07,10,5.60
2008,04,10,07,11,5.60
2008,04,10,07,12,5.60
2008,04,10,07,13,5.60
2008,04,10,07,14,5.60
2008,04,10,07,15,5.50
2008,04,10,07,16,5.50
2008,04,10,07,17,5.50
2008,04,10,07,18,5.50
2008,04,10,07,19,5.50
2008,04,10,07,20,5.50
2008,04,10,07,21,5.50
2008,04,10,07,22,5.50
2008,04,10,07,23,5.50
2008,04,10,07,24,5.50
2008,04,10,07,25,5.50
2008,04,10,07,26,5.50
2008,04,10,07,27,5.50
2008,04,10,07,28,5.50
2008,04,10,07,29,5.50
2008,04,10,07,30,5.50
2008,04,10,07,31,5.50
2008,04,10,07,32,5.50
2008,04,10,07,33,5.60
2008,04,10,07,34,5.60
2008,04,10,07,35,5.60
2008,04,10,07,36,5.50
2008,04,10,07,37,5.60
2008,04,10,07,38,5.60
2008,04,10,07,39,5.60
2008,04,10,07,40,5.60
2008,04,10,07,41,5.60
2008,04,10,07,42,5.60
2008,04,10,07,43,5.60
2008,04,10,07,44,5.60
2008,04,10,07,45,5.60
2008,04,10,07,46,5.60
2008,04,10,07,47,5.70
2008,04,10,07,48,5.70
2008,04,10,07,49,5.70
2008,04,10,07,50,5.70
2008,04,10,07,51,5.70
2008,04,10,07,52,5.70
2008,04,10,07,53,5.70
2008,04,10,07,54,5.70
2008,04,10,07,55,5.70
2008,04,10,07,56,5.70
2008,04,10,07,57,5.70
2008,04,10,07,58,5.70
2008,04,10,07,59,5.70
2008,04,10,08,00,5.70
2008,04,10,08,01,5.70
2008,04,10,08,02,5.70
2008,04,10,08,03,5.70
2008,04,10,08,04,5.70
2008,04,10,08,05,5.70
2008,04,10,08,06,5.70
2008,04,10,08,07,5.70
2008,04,10,08,08,5.70
2008,04,10,08,09,5.70
2008,04,10,08,10,5.70
2008,04,10,08,11,5.70
2008,04,10,08,12,5.70
2008,04,10,08,13,5.70
2008,04,10,08,14,5.70
2008,04,10,08,15,5.70
2008,04,10,08,16,5.70
2008,04,10,08,17,5.70
2008,04,10,08,18,5.70
2008,04,10,08,19,5.70
2008,04,10,08,20,5.70
2008,04,10,08,21,5.70
2008,04,10,08,22,5.70
2008,04,10,08,23,5.70
2008,04,10,08,24,5.80
2008,04,10,08,25,5.80
2008,04,10,08,26,5.80
2008,04,10,08,27,5.80
2008,04,10,08,28,5.80
2008,04,10,08,29,5.80
2008,04,10,08,30,5.80
2008,04,10,08,31,5.80
2008,04,10,08,32,5.80
2008,04,10,08,33,5.80
2008,04,10,08,34,5.80
2008,04,10,08,35,5.80
2008,04,10,08,36,5.80
2008,04,10,08,37,5.80
2008,04,10,08,38,5.80
2008,04,10,08,39,5.80
2008,04,10,08,40,5.80
2008,04,10,08,41,5.80
2008,04,10,08,42,5.80
2008,04,10,08,43,5.80
2008,04,10,08,44,5.90
2008,04,10,08,45,5.90
2008,04,10,08,46,5.90
2008,04,10,08,47,5.90
2008,04,10,08,48,5.90
2008,04,10,08,49,5.90
2008,04,10,08,50,6.00
2008,04,10,08,51,6.00
2008,04,10,08,52,6.00
2008,04,10,08,53,6.00
2008,04,10,08,54,6.00
2008,04,10,08,55,6.00
2008,04,10,08,56,6.00
2008,04,10,08,57,6.00
2008,04,10,08,58,6.10
2008,04,10,08,59,6.10
2008,04,10,09,00,6.10
2008,04,10,09,01,6.10
2008,04,10,09,02,6.20
2008,04,10,09,03,6.20
2008,04,10,09,04,6.20
2008,04,10,09,05,6.20
2008,04,10,09,06,6.20
2008,04,10,09,07,6.20
2008,04,10,09,08,6.20
2008,04,10,09,09,6.20
2008,04,10,09,10,6.20
2008,04,10,09,11,6.20
2008,04,10,09,12,6.30
2008,04,10,09,13,6.30
2008,04,10,09,14,6.30
2008,04,10,09,15,6.30
2008,04,10,09,16,6.30
2008,04,10,09,17,6.30
2008,04,10,09,18,6.30
2008,04,10,09,19,6.40
2008,04,10,09,20,6.40
2008,04,10,09,21,6.40
2008,04,10,09,22,6.40
2008,04,10,09,23,6.40
2008,04,10,09,24,6.40
2008,04,10,09,25,6.40
2008,04,10,09,26,6.50
2008,04,10,09,27,6.60
2008,04,10,09,28,6.60
2008,04,10,09,29,6.60
2008,04,10,09,30,6.60
2008,04,10,09,31,6.60
2008,04,10,09,32,6.60
2008,04,10,09,33,6.70
2008,04,10,09,34,6.70
2008,04,10,09,35,6.70
2008,04,10,09,36,6.70
2008,04,10,09,37,6.70
2008,04,10,09,38,6.70
2008,04,10,09,39,6.80
2008,04,10,09,40,6.80
2008,04,10,09,41,6.80
2008,04,10,09,42,6.80
2008,04,10,09,43,6.80
2008,04,10,09,44,6.80
2008,04,10,09,45,6.80
2008,04,10,09,46,6.80
2008,04,10,09,47,6.80
2008,04,10,09,48,6.80
2008,04,10,09,49,6.80
2008,04,10,09,50,6.80
2008,04,10,09,51,6.80
2008,04,10,09,52,6.80
2008,04,10,09,53,6.80
2008,04,10,09,54,6.80
2008,04,10,09,55,6.80
2008,04,10,09,56,6.80
2008,04,10,09,57,6.80
2008,04,10,09,58,6.80
2008,04,10,09,59,6.80
2008,04,10,10,00,6.90
2008,04,10,10,01,6.90
2008,04,10,10,02,6.90
2008,04,10,10,03,6.90
2008,04,10,10,04,6.90
2008,04,10,10,05,7.00
2008,04,10,10,06,7.00
2008,04,10,10,07,7.00
2008,04,10,10,08,7.00
2008,04,10,10,09,7.00
2008,04,10,10,10,7.00
2008,04,10,10,11,7.00
2008,04,10,10,12,7.00
2008,04,10,10,13,6.90
2008,04,10,10,14,7.00
2008,04,10,10,15,7.00
2008,04,10,10,16,7.00
2008,04,10,10,17,7.00
2008,04,10,10,18,7.00
2008,04,10,10,19,7.00
2008,04,10,10,20,7.10
2008,04,10,10,21,7.10
2008,04,10,10,22,7.10
2008,04,10,10,23,7.20
2008,04,10,10,24,7.20
2008,04,10,10,25,7.20
2008,04,10,10,26,7.30
2008,04,10,10,27,7.30
2008,04,10,10,28,7.30
2008,04,10,10,29,7.40
2008,04,10,10,30,7.40
2008,04,10,10,31,7.40
2008,04,10,10,32,7.40
2008,04,10,10,33,7.40
2008,04,10,10,34,7.50
2008,04,10,10,35,7.50
2008,04,10,10,36,7.50
2008,04,10,10,37,7.50
2008,04,10,10,38,7.50
2008,04,10,10,39,7.60
2008,04,10,10,40,7.60
2008,04,10,10,41,7.70
2008,04,10,10,42,7.70
2008,04,10,10,43,7.80
2008,04,10,10,44,7.80
2008,04,10,10,45,7.80
2008,04,10,10,46,7.80
2008,04,10,10,47,7.80
2008,04,10,10,48,7.90
2008,04,10,10,49,7.90
2008,04,10,10,50,7.80
2008,04,10,10,51,7.90
2008,04,10,10,52,7.90
2008,04,10,10,53,7.90
2008,04,10,10,54,8.00
2008,04,10,10,55,8.00
2008,04,10,10,56,8.10
2008,04,10,10,57,8.20
2008,04,10,10,58,8.20
2008,04,10,10,59,8.20
2008,04,10,11,00,8.20
2008,04,10,11,01,8.20
2008,04,10,11,02,8.20
2008,04,10,11,03,8.30
2008,04,10,11,04,8.30
2008,04,10,11,05,8.40
2008,04,10,11,06,8.50
2008,04,10,11,07,8.50
2008,04,10,11,08,8.50
2008,04,10,11,09,8.60
2008,04,10,11,10,8.60
2008,04,10,11,11,8.70
2008,04,10,11,12,8.70
2008,04,10,11,13,8.80
2008,04,10,11,14,8.90
2008,04,10,11,15,8.90
2008,04,10,11,16,9.00
2008,04,10,11,17,9.00
2008,04,10,11,18,9.20
2008,04,10,11,19,9.20
2008,04,10,11,20,9.20
2008,04,10,11,21,9.20
2008,04,10,11,22,9.10
2008,04,10,11,23,9.20
2008,04,10,11,24,9.20
2008,04,10,11,25,9.20
2008,04,10,11,26,9.10
2008,04,10,11,27,8.90
2008,04,10,11,28,8.90
2008,04,10,11,29,8.90
2008,04,10,11,30,9.00
2008,04,10,11,31,9.00
2008,04,10,11,32,9.10
2008,04,10,11,33,9.20
2008,04,10,11,34,9.30
2008,04,10,11,35,9.40
2008,04,10,11,36,9.50
2008,04,10,11,37,9.40
2008,04,10,11,38,9.30
2008,04,10,11,39,9.20
2008,04,10,11,40,9.10
2008,04,10,11,41,9.00
2008,04,10,11,42,8.80
2008,04,10,11,43,8.70
2008,04,10,11,44,8.60
2008,04,10,11,45,8.70
2008,04,10,11,46,8.60
2008,04,10,11,47,8.60
2008,04,10,11,48,8.60
2008,04,10,11,49,8.50
2008,04,10,11,50,8.40
2008,04,10,11,51,8.40
2008,04,10,11,52,8.40
2008,04,10,11,53,8.30
2008,04,10,11,54,8.30
2008,04,10,11,55,8.30
2008,04,10,11,56,8.30
2008,04,10,11,57,8.30
2008,04,10,11,58,8.30
2008,04,10,11,59,8.30
2008,04,10,12,00,8.30
2008,04,10,12,01,8.30
2008,04,10,12,02,8.30
2008,04,10,12,03,8.30
2008,04,10,12,04,8.30
2008,04,10,12,05,8.30
2008,04,10,12,06,8.30
2008,04,10,12,07,8.40
2008,04,10,12,08,8.50
2008,04,10,12,09,8.50
2008,04,10,12,10,8.50
2008,04,10,12,11,8.50
2008,04,10,12,12,8.50
2008,04,10,12,13,8.60
2008,04,10,12,14,8.70
2008,04,10,12,15,8.80
2008,04,10,12,16,8.90
2008,04,10,12,17,9.00
2008,04,10,12,18,9.00
2008,04,10,12,19,9.10
2008,04,10,12,20,9.10
2008,04,10,12,21,9.10
2008,04,10,12,22,9.10
2008,04,10,12,23,9.20
2008,04,10,12,24,9.20
2008,04,10,12,25,9.20
2008,04,10,12,26,9.30
2008,04,10,12,27,9.40
2008,04,10,12,28,9.50
2008,04,10,12,29,9.60
2008,04,10,12,30,9.70
2008,04,10,12,31,9.80
2008,04,10,12,32,9.80
2008,04,10,12,33,9.70
2008,04,10,12,34,9.70
2008,04,10,12,35,9.70
2008,04,10,12,36,9.60
2008,04,10,12,37,9.60
2008,04,10,12,38,9.70
2008,04,10,12,39,9.80
2008,04,10,12,40,9.90
2008,04,10,12,41,9.90
2008,04,10,12,42,9.90
2008,04,10,12,43,9.90
2008,04,10,12,44,9.90
2008,04,10,12,45,9.90
2008,04,10,12,46,9.90
2008,04,10,12,47,9.90
2008,04,10,12,48,9.80
2008,04,10,12,49,9.90
2008,04,10,12,50,10.00
2008,04,10,12,51,10.10
2008,04,10,12,52,10.20
2008,04,10,12,53,10.30
2008,04,10,12,54,10.40
2008,04,10,12,55,10.50
2008,04,10,12,56,10.60
2008,04,10,12,57,10.40
2008,04,10,12,58,10.30
2008,04,10,12,59,10.10
2008,04,10,13,00,10.10
2008,04,10,13,01,10.00
2008,04,10,13,02,9.90
2008,04,10,13,03,9.90
2008,04,10,13,04,9.90
2008,04,10,13,05,10.00
2008,04,10,13,06,10.10
2008,04,10,13,07,10.20
2008,04,10,13,08,10.30
2008,04,10,13,09,10.30
2008,04,10,13,10,10.30
2008,04,10,13,11,10.40
2008,04,10,13,12,10.30
2008,04,10,13,13,10.30
2008,04,10,13,14,10.30
2008,04,10,13,15,10.20
2008,04,10,13,16,10.10
2008,04,10,13,17,10.10
2008,04,10,13,18,10.10
2008,04,10,13,19,10.10
2008,04,10,13,20,10.10
2008,04,10,13,21,10.20
2008,04,10,13,22,10.20
2008,04,10,13,23,10.10
2008,04,10,13,24,10.10
2008,04,10,13,25,10.20
2008,04,10,13,26,10.30
2008,04,10,13,27,10.40
2008,04,10,13,28,10.40
2008,04,10,13,29,10.40
2008,04,10,13,30,10.40
2008,04,10,13,31,10.50
2008,04,10,13,32,10.60
2008,04,10,13,33,10.60
2008,04,10,13,34,10.60
2008,04,10,13,35,10.60
2008,04,10,13,36,10.60
2008,04,10,13,37,10.60
2008,04,10,13,38,10.60
2008,04,10,13,39,10.60
2008,04,10,13,40,10.70
2008,04,10,13,41,10.80
2008,04,10,13,42,10.80
2008,04,10,13,43,10.90
2008,04,10,13,44,10.90
2008,04,10,13,45,10.90
2008,04,10,13,46,10.90
2008,04,10,13,47,10.90
2008,04,10,13,48,10.90
2008,04,10,13,49,10.90
2008,04,10,13,50,10.90
2008,04,10,13,51,10.80
2008,04,10,13,52,10.80
2008,04,10,13,53,10.80
2008,04,10,13,54,10.80
2008,04,10,13,55,10.90
2008,04,10,13,56,11.10
2008,04,10,13,57,11.20
2008,04,10,13,58,11.30
2008,04,10,13,59,11.40
2008,04,10,14,00,11.40
2008,04,10,14,01,11.40
2008,04,10,14,02,11.30
2008,04,10,14,03,11.30
2008,04,10,14,04,11.30
2008,04,10,14,05,11.40
2008,04,10,14,06,11.40
2008,04,10,14,07,11.40
2008,04,10,14,08,11.40
2008,04,10,14,09,11.40
2008,04,10,14,10,11.40
2008,04,10,14,11,11.50
2008,04,10,14,12,11.60
2008,04,10,14,13,11.50
2008,04,10,14,14,11.40
2008,04,10,14,15,11.30
2008,04,10,14,16,11.30
2008,04,10,14,17,11.30
2008,04,10,14,18,11.30
2008,04,10,14,19,11.20
2008,04,10,14,20,10.90
2008,04,10,14,21,10.80
2008,04,10,14,22,10.80
2008,04,10,14,23,10.80
2008,04,10,14,24,10.80
2008,04,10,14,25,10.80
2008,04,10,14,26,10.70
2008,04,10,14,27,10.80
2008,04,10,14,28,10.80
2008,04,10,14,29,10.80
2008,04,10,14,30,10.80
2008,04,10,14,31,10.90
2008,04,10,14,32,10.90
2008,04,10,14,33,10.90
2008,04,10,14,34,10.90
2008,04,10,14,35,10.90
2008,04,10,14,36,10.90
2008,04,10,14,37,11.00
2008,04,10,14,38,11.10
2008,04,10,14,39,11.10
2008,04,10,14,40,11.20
2008,04,10,14,41,11.30
2008,04,10,14,42,11.30
2008,04,10,14,43,11.30
2008,04,10,14,44,11.20
2008,04,10,14,45,11.10
2008,04,10,14,46,10.90
2008,04,10,14,47,10.90
2008,04,10,14,48,11.00
2008,04,10,14,49,11.00
2008,04,10,14,50,10.90
2008,04,10,14,51,11.00
2008,04,10,14,52,10.90
2008,04,10,14,53,10.90
2008,04,10,14,54,11.00
2008,04,10,14,55,11.10
2008,04,10,14,56,11.10
2008,04,10,14,57,11.10
2008,04,10,14,58,11.10
2008,04,10,14,59,11.10
2008,04,10,15,00,11.10
2008,04,10,15,01,11.10
2008,04,10,15,02,11.10
2008,04,10,15,03,11.10
2008,04,10,15,04,11.00
2008,04,10,15,05,11.10
2008,04,10,15,06,11.00
2008,04,10,15,07,10.90
2008,04,10,15,08,10.90
2008,04,10,15,09,10.80
2008,04,10,15,10,10.80
2008,04,10,15,11,10.80
2008,04,10,15,12,10.80
2008,04,10,15,13,10.90
2008,04,10,15,14,10.90
2008,04,10,15,15,10.90
2008,04,10,15,16,10.90
2008,04,10,15,17,10.90
2008,04,10,15,18,11.00
2008,04,10,15,19,11.10
2008,04,10,15,20,11.10
2008,04,10,15,21,11.10
2008,04,10,15,22,11.20
2008,04,10,15,23,11.20
2008,04,10,15,24,11.30
2008,04,10,15,25,11.30
2008,04,10,15,26,11.30
2008,04,10,15,27,11.40
2008,04,10,15,28,11.40
2008,04,10,15,29,11.40
2008,04,10,15,30,11.30
2008,04,10,15,31,11.20
2008,04,10,15,32,11.10
2008,04,10,15,33,11.00
2008,04,10,15,34,10.90
2008,04,10,15,35,10.90
2008,04,10,15,36,10.90
2008,04,10,15,37,10.90
2008,04,10,15,38,11.10
2008,04,10,15,39,11.20
2008,04,10,15,40,11.20
2008,04,10,15,41,11.20
2008,04,10,15,42,11.20
2008,04,10,15,43,11.10
2008,04,10,15,44,11.00
2008,04,10,15,45,10.90
2008,04,10,15,46,10.90
2008,04,10,15,47,10.90
2008,04,10,15,48,10.90
2008,04,10,15,49,10.90
2008,04,10,15,50,11.00
2008,04,10,15,51,11.10
2008,04,10,15,52,11.10
2008,04,10,15,53,11.20
2008,04,10,15,54,11.30
2008,04,10,15,55,11.40
2008,04,10,15,56,11.50
2008,04,10,15,57,11.60
2008,04,10,15,58,11.60
2008,04,10,15,59,11.60
2008,04,10,16,00,11.60
2008,04,10,16,01,11.60
2008,04,10,16,02,11.50
2008,04,10,16,03,11.40
2008,04,10,16,04,11.40
2008,04,10,16,05,11.40
2008,04,10,16,06,11.40
2008,04,10,16,07,11.40
2008,04,10,16,08,11.40
2008,04,10,16,09,11.40
2008,04,10,16,10,11.40
2008,04,10,16,11,11.40
2008,04,10,16,12,11.40
2008,04,10,16,13,11.30
2008,04,10,16,14,11.20
2008,04,10,16,15,11.20
2008,04,10,16,16,11.20
2008,04,10,16,17,11.20
2008,04,10,16,18,11.20
2008,04,10,16,19,11.20
2008,04,10,16,20,11.20
2008,04,10,16,21,11.20
2008,04,10,16,22,11.30
2008,04,10,16,23,11.30
2008,04,10,16,24,11.30
2008,04,10,16,25,11.40
2008,04,10,16,26,11.40
2008,04,10,16,27,11.40
2008,04,10,16,28,11.40
2008,04,10,16,29,11.40
2008,04,10,16,30,11.40
2008,04,10,16,31,11.30
2008,04,10,16,32,11.20
2008,04,10,16,33,11.10
2008,04,10,16,34,11.10
2008,04,10,16,35,11.10
2008,04,10,16,36,11.10
2008,04,10,16,37,11.20
2008,04,10,16,38,11.20
2008,04,10,16,39,11.20
2008,04,10,16,40,11.30
2008,04,10,16,41,11.30
2008,04,10,16,42,11.30
2008,04,10,16,43,11.30
2008,04,10,16,44,11.20
2008,04,10,16,45,11.20
2008,04,10,16,46,11.20
2008,04,10,16,47,11.20
2008,04,10,16,48,11.20
2008,04,10,16,49,11.20
2008,04,10,16,50,11.20
2008,04,10,16,51,11.10
2008,04,10,16,52,11.00
2008,04,10,16,53,10.90
2008,04,10,16,54,10.90
2008,04,10,16,55,10.80
2008,04,10,16,56,10.80
2008,04,10,16,57,10.70
2008,04,10,16,58,10.70
2008,04,10,16,59,10.60
2008,04,10,17,00,10.60
2008,04,10,17,01,10.50
2008,04,10,17,02,10.40
2008,04,10,17,03,10.40
2008,04,10,17,04,10.40
2008,04,10,17,05,10.40
2008,04,10,17,06,10.50
2008,04,10,17,07,10.60
2008,04,10,17,08,10.60
2008,04,10,17,09,10.50
2008,04,10,17,10,10.40
2008,04,10,17,11,10.40
2008,04,10,17,12,10.40
2008,04,10,17,13,10.40
2008,04,10,17,14,10.40
2008,04,10,17,15,10.40
2008,04,10,17,16,10.40
2008,04,10,17,17,10.40
2008,04,10,17,18,10.40
2008,04,10,17,19,10.40
2008,04,10,17,20,10.40
2008,04,10,17,21,10.50
2008,04,10,17,22,10.60
2008,04,10,17,23,10.60
2008,04,10,17,24,10.60
2008,04,10,17,25,10.60
2008,04,10,17,26,10.60
2008,04,10,17,27,10.60
2008,04,10,17,28,10.60
2008,04,10,17,29,10.60
2008,04,10,17,30,10.60
2008,04,10,17,31,10.60
2008,04,10,17,32,10.60
2008,04,10,17,33,10.60
2008,04,10,17,34,10.60
2008,04,10,17,35,10.60
2008,04,10,17,36,10.60
2008,04,10,17,37,10.60
2008,04,10,17,38,10.60
2008,04,10,17,39,10.50
2008,04,10,17,40,10.40
2008,04,10,17,41,10.30
2008,04,10,17,42,10.20
2008,04,10,17,43,10.20
2008,04,10,17,44,10.10
2008,04,10,17,45,10.10
2008,04,10,17,46,10.00
2008,04,10,17,47,9.90
2008,04,10,17,48,10.00
2008,04,10,17,49,10.10
2008,04,10,17,50,10.10
2008,04,10,17,51,10.10
2008,04,10,17,52,10.10
2008,04,10,17,53,9.90